| time (UTC) | temp F | wind direction | speed MPH | gust MPH | rain 1hr in | rain 24hr in | rain mn in | humidity % | barometer mb |
| 20260507025015 | 56 | 270 | 10.0 | 16.0 | 0.00 | 0.00 | 0.00 | 69 | 1008.9 |
| 20260507024036 | 56 | 270 | 7.0 | 13.0 | 0.00 | 0.00 | 0.00 | 69 | 1008.6 |
| 20260507023015 | 57 | 270 | 9.0 | 18.0 | 0.00 | 0.00 | 0.00 | 70 | 1008.5 |
| 20260507022015 | 57 | 270 | 7.0 | 14.0 | 0.00 | 0.00 | 0.00 | 70 | 1008.5 |
| 20260507021016 | 57 | 270 | 9.0 | 15.0 | 0.00 | 0.00 | 0.00 | 70 | 1008.5 |
| 20260507020016 | 57 | 270 | 9.0 | 16.0 | 0.00 | 0.00 | 0.00 | 71 | 1008.5 |
| 20260507015056 | 57 | 270 | 9.0 | 15.0 | 0.00 | 0.00 | 0.00 | 72 | 1008.5 |
| 20260507014015 | 57 | 270 | 8.0 | 14.0 | 0.00 | 0.00 | 0.00 | 71 | 1008.4 |
| 20260507013015 | 57 | 270 | 9.0 | 16.0 | 0.00 | 0.00 | 0.00 | 71 | 1008.4 |
| 20260507012015 | 58 | 270 | 9.0 | 17.0 | 0.00 | 0.00 | 0.00 | 71 | 1008.2 |
| 20260507010017 | 58 | 270 | 7.0 | 17.0 | 0.00 | 0.00 | 0.00 | 70 | 1008.1 |
| 20260507005016 | 58 | 270 | 10.0 | 22.0 | 0.00 | 0.00 | 0.00 | 70 | 1007.8 |
| 20260507004015 | 58 | 270 | 9.0 | 20.0 | 0.00 | 0.00 | 0.00 | 70 | 1007.7 |
| 20260507003017 | 59 | 270 | 8.0 | 16.0 | 0.00 | 0.00 | 0.00 | 70 | 1007.7 |
| 20260507002016 | 59 | 270 | 10.0 | 17.0 | 0.00 | 0.00 | 0.00 | 70 | 1007.6 |
| 20260507001015 | 59 | 270 | 7.0 | 17.0 | 0.00 | 0.00 | 0.00 | 70 | 1007.4 |
| 20260507000037 | 60 | 270 | 8.0 | 13.0 | 0.00 | 0.00 | 0.00 | 71 | 1007.5 |
| 20260506235035 | 60 | 270 | 8.0 | 17.0 | 0.00 | 0.00 | 0.00 | 71 | 1007.3 |
| 20260506233016 | 60 | 270 | 7.0 | 15.0 | 0.00 | 0.00 | 0.00 | 71 | 1007.3 |
| 20260506232015 | 60 | 225 | 7.0 | 13.0 | 0.00 | 0.00 | 0.00 | 71 | 1007.1 |
| 20260506231016 | 60 | 225 | 7.0 | 16.0 | 0.00 | 0.00 | 0.00 | 71 | 1006.9 |
| 20260506230036 | 60 | 270 | 6.0 | 14.0 | 0.00 | 0.00 | 0.00 | 69 | 1006.7 |
| 20260506225036 | 61 | 270 | 7.0 | 16.0 | 0.00 | 0.00 | 0.00 | 67 | 1006.7 |
| 20260506224015 | 61 | 270 | 8.0 | 19.0 | 0.00 | 0.00 | 0.00 | 66 | 1006.4 |
| 20260506223016 | 61 | 248 | 6.0 | 10.0 | 0.00 | 0.00 | 0.00 | 65 | 1006.1 |
| 20260506222016 | 62 | 225 | 9.0 | 19.0 | 0.00 | 0.00 | 0.00 | 64 | 1005.9 |
| 20260506221016 | 62 | 225 | 7.0 | 13.0 | 0.00 | 0.00 | 0.00 | 64 | 1005.7 |
| 20260506220016 | 59 | 248 | 3.0 | 10.0 | 0.00 | 0.00 | 0.00 | 69 | 1005.3 |
| 20260506215017 | 60 | 135 | 1.0 | 4.0 | 0.00 | 0.00 | 0.00 | 67 | 1005.0 |
| 20260506214015 | 61 | 135 | 1.0 | 4.0 | 0.00 | 0.00 | 0.00 | 65 | 1004.9 |
| 20260506213015 | 62 | 135 | 1.0 | 7.0 | 0.00 | 0.00 | 0.00 | 64 | 1004.8 |
| 20260506212015 | 63 | 180 | 2.0 | 5.0 | 0.00 | 0.00 | 0.00 | 62 | 1004.6 |
| 20260506211016 | 64 | 135 | 2.0 | 5.0 | 0.00 | 0.00 | 0.00 | 61 | 1004.6 |
| 20260506210036 | 64 | 135 | 5.0 | 8.0 | 0.00 | 0.00 | 0.00 | 60 | 1004.4 |
| 20260506205016 | 65 | 135 | 7.0 | 12.0 | 0.00 | 0.00 | 0.00 | 59 | 1004.2 |
| 20260506203056 | 65 | 158 | 8.0 | 15.0 | 0.00 | 0.00 | 0.00 | 58 | 1004.1 |
| 20260506202015 | 66 | 158 | 9.0 | 17.0 | 0.00 | 0.00 | 0.00 | 58 | 1004.0 |
| 20260506201037 | 66 | 158 | 8.0 | 14.0 | 0.00 | 0.00 | 0.00 | 57 | 1004.0 |
| 20260506200056 | 66 | 158 | 9.0 | 16.0 | 0.00 | 0.00 | 0.00 | 57 | 1003.8 |
| 20260506195015 | 66 | 158 | 8.0 | 18.0 | 0.00 | 0.00 | 0.00 | 57 | 1003.5 |
| 20260506194035 | 66 | 158 | 10.0 | 18.0 | 0.00 | 0.00 | 0.00 | 56 | 1003.5 |
| 20260506193015 | 67 | 135 | 9.0 | 16.0 | 0.00 | 0.00 | 0.00 | 55 | 1003.5 |
| 20260506192015 | 67 | 135 | 9.0 | 16.0 | 0.00 | 0.00 | 0.00 | 55 | 1003.3 |
| 20260506191015 | 67 | 158 | 9.0 | 14.0 | 0.00 | 0.00 | 0.00 | 55 | 1003.3 |
| 20260506190037 | 68 | 158 | 8.0 | 13.0 | 0.00 | 0.00 | 0.00 | 54 | 1003.2 |
| 20260506185016 | 68 | 158 | 9.0 | 16.0 | 0.00 | 0.00 | 0.00 | 54 | 1003.0 |
| 20260506184016 | 68 | 158 | 9.0 | 18.0 | 0.00 | 0.00 | 0.00 | 53 | 1002.8 |
| 20260506183016 | 69 | 135 | 11.0 | 19.0 | 0.00 | 0.00 | 0.00 | 52 | 1002.6 |
| 20260506182015 | 69 | 158 | 10.0 | 17.0 | 0.00 | 0.00 | 0.00 | 51 | 1002.4 |
| 20260506181016 | 69 | 158 | 10.0 | 18.0 | 0.00 | 0.00 | 0.00 | 51 | 1002.2 |
| 20260506180015 | 70 | 158 | 10.0 | 16.0 | 0.00 | 0.00 | 0.00 | 51 | 1002.1 |
| 20260506175016 | 70 | 135 | 10.0 | 20.0 | 0.00 | 0.00 | 0.00 | 50 | 1002.1 |
| 20260506174016 | 71 | 158 | 9.0 | 15.0 | 0.00 | 0.00 | 0.00 | 50 | 1002.1 |
| 20260506173036 | 71 | 158 | 10.0 | 17.0 | 0.00 | 0.00 | 0.00 | 49 | 1002.2 |
| 20260506172015 | 72 | 135 | 10.0 | 19.0 | 0.00 | 0.00 | 0.00 | 49 | 1002.3 |
| 20260506171015 | 72 | 135 | 11.0 | 20.0 | 0.00 | 0.00 | 0.00 | 47 | 1002.2 |
| 20260506170015 | 72 | 135 | 9.0 | 14.0 | 0.00 | 0.00 | 0.00 | 48 | 1002.2 |
| 20260506165015 | 72 | 135 | 11.0 | 22.0 | 0.00 | 0.00 | 0.00 | 48 | 1002.2 |
| 20260506164016 | 72 | 135 | 12.0 | 18.0 | 0.00 | 0.00 | 0.00 | 48 | 1002.3 |
| 20260506163016 | 73 | 135 | 10.0 | 18.0 | 0.00 | 0.00 | 0.00 | 48 | 1002.4 |
| 20260506162016 | 73 | 158 | 9.0 | 15.0 | 0.00 | 0.00 | 0.00 | 48 | 1002.5 |
| 20260506161016 | 73 | 158 | 11.0 | 23.0 | 0.00 | 0.00 | 0.00 | 47 | 1002.6 |
| 20260506160016 | 74 | 158 | 14.0 | 25.0 | 0.00 | 0.00 | 0.00 | 45 | 1002.5 |
| 20260506155035 | 75 | 135 | 11.0 | 22.0 | 0.00 | 0.00 | 0.00 | 45 | 1002.6 |
| 20260506154015 | 75 | 135 | 12.0 | 24.0 | 0.00 | 0.00 | 0.00 | 44 | 1002.7 |
| 20260506153016 | 75 | 135 | 13.0 | 23.0 | 0.00 | 0.00 | 0.00 | 43 | 1002.8 |
| 20260506152015 | 75 | 135 | 12.0 | 25.0 | 0.00 | 0.00 | 0.00 | 43 | 1002.8 |
| 20260506151036 | 76 | 158 | 13.0 | 22.0 | 0.00 | 0.00 | 0.00 | 42 | 1002.9 |
| 20260506150015 | 77 | 135 | 14.0 | 26.0 | 0.00 | 0.00 | 0.00 | 41 | 1002.9 |
| 20260506145017 | 77 | 158 | 12.0 | 19.0 | 0.00 | 0.00 | 0.00 | 41 | 1002.9 |
| 20260506144015 | 77 | 135 | 12.0 | 23.0 | 0.00 | 0.00 | 0.00 | 41 | 1002.9 |
| 20260506143036 | 77 | 135 | 12.0 | 22.0 | 0.00 | 0.00 | 0.00 | 40 | 1002.9 |
| 20260506142036 | 77 | 135 | 13.0 | 25.0 | 0.00 | 0.00 | 0.00 | 40 | 1003.1 |
| 20260506141015 | 78 | 135 | 13.0 | 27.0 | 0.00 | 0.00 | 0.00 | 40 | 1003.3 |
| 20260506140036 | 78 | 135 | 12.0 | 23.0 | 0.00 | 0.00 | 0.00 | 39 | 1003.4 |
| 20260506135016 | 78 | 135 | 14.0 | 27.0 | 0.00 | 0.00 | 0.00 | 40 | 1003.6 |
| 20260506134015 | 78 | 135 | 12.0 | 21.0 | 0.00 | 0.00 | 0.00 | 41 | 1003.8 |
| 20260506133016 | 77 | 135 | 13.0 | 22.0 | 0.00 | 0.00 | 0.00 | 41 | 1003.8 |
| 20260506132037 | 76 | 135 | 13.0 | 22.0 | 0.00 | 0.00 | 0.00 | 43 | 1004.0 |
| 20260506131015 | 74 | 135 | 13.0 | 25.0 | 0.00 | 0.00 | 0.00 | 44 | 1004.1 |
| 20260506130016 | 73 | 135 | 10.0 | 19.0 | 0.00 | 0.00 | 0.00 | 46 | 1004.2 |
| 20260506125016 | 73 | 113 | 12.0 | 21.0 | 0.00 | 0.00 | 0.00 | 45 | 1004.3 |
| 20260506124016 | 73 | 135 | 12.0 | 21.0 | 0.00 | 0.00 | 0.00 | 47 | 1004.6 |
| 20260506123016 | 73 | 135 | 9.0 | 16.0 | 0.00 | 0.00 | 0.00 | 45 | 1004.7 |
| 20260506122017 | 73 | 135 | 9.0 | 19.0 | 0.00 | 0.00 | 0.00 | 47 | 1005.0 |
| 20260506121035 | 73 | 113 | 15.0 | 23.0 | 0.00 | 0.00 | 0.00 | 46 | 1005.1 |
| 20260506120016 | 74 | 135 | 13.0 | 25.0 | 0.00 | 0.00 | 0.00 | 45 | 1005.1 |
| 20260506115018 | 75 | 135 | 12.0 | 24.0 | 0.00 | 0.00 | 0.00 | 45 | 1005.1 |
| 20260506114036 | 76 | 135 | 12.0 | 24.0 | 0.00 | 0.00 | 0.00 | 44 | 1005.3 |
| 20260506113016 | 75 | 135 | 13.0 | 27.0 | 0.00 | 0.00 | 0.00 | 45 | 1005.4 |
| 20260506112036 | 75 | 135 | 14.0 | 23.0 | 0.00 | 0.00 | 0.00 | 47 | 1005.5 |
| 20260506111016 | 75 | 135 | 14.0 | 23.0 | 0.00 | 0.00 | 0.00 | 46 | 1005.7 |
| 20260506110016 | 75 | 135 | 12.0 | 20.0 | 0.00 | 0.00 | 0.00 | 47 | 1005.8 |
| 20260506105058 | 75 | 135 | 14.0 | 21.0 | 0.00 | 0.00 | 0.00 | 46 | 1005.9 |
| 20260506104016 | 75 | 135 | 12.0 | 21.0 | 0.00 | 0.00 | 0.00 | 44 | 1006.0 |
| 20260506103036 | 74 | 135 | 13.0 | 18.0 | 0.00 | 0.00 | 0.00 | 49 | 1006.0 |
| 20260506102016 | 74 | 135 | 12.0 | 19.0 | 0.00 | 0.00 | 0.00 | 48 | 1006.1 |
| 20260506101016 | 75 | 135 | 9.0 | 15.0 | 0.00 | 0.00 | 0.00 | 48 | 1006.2 |
| 20260506100036 | 73 | 113 | 9.0 | 17.0 | 0.00 | 0.00 | 0.00 | 49 | 1006.4 |
| 20260506095016 | 73 | 135 | 10.0 | 16.0 | 0.00 | 0.00 | 0.00 | 50 | 1006.5 |
| 20260506094016 | 73 | 135 | 9.0 | 14.0 | 0.00 | 0.00 | 0.00 | 52 | 1006.6 |
| 20260506093016 | 73 | 135 | 9.0 | 13.0 | 0.00 | 0.00 | 0.00 | 49 | 1006.8 |
| 20260506092016 | 73 | 113 | 7.0 | 14.0 | 0.00 | 0.00 | 0.00 | 51 | 1006.9 |
| 20260506091016 | 72 | 135 | 7.0 | 12.0 | 0.00 | 0.00 | 0.00 | 50 | 1006.8 |
| 20260506090016 | 73 | 113 | 7.0 | 15.0 | 0.00 | 0.00 | 0.00 | 49 | 1006.8 |
| 20260506084016 | 72 | 135 | 5.0 | 9.0 | 0.00 | 0.00 | 0.00 | 51 | 1007.0 |
| 20260506083016 | 71 | 0 | 3.0 | 11.0 | 0.00 | 0.00 | 0.00 | 53 | 1007.1 |
| 20260506082016 | 71 | 135 | 3.0 | 6.0 | 0.00 | 0.00 | 0.00 | 51 | 1007.2 |
| 20260506081036 | 70 | 293 | 2.0 | 6.0 | 0.00 | 0.00 | 0.00 | 53 | 1007.2 |
| 20260506073016 | 67 | 270 | 3.0 | 6.0 | 0.00 | 0.00 | 0.00 | 60 | 1007.3 |
| 20260506072016 | 66 | 315 | 3.0 | 6.0 | 0.00 | 0.00 | 0.00 | 62 | 1007.5 |
| 20260506071016 | 65 | 270 | 5.0 | 8.0 | 0.00 | 0.00 | 0.00 | 61 | 1007.5 |
| 20260506062056 | 62 | 270 | 4.0 | 7.0 | 0.00 | 0.00 | 0.00 | 68 | 1007.8 |
| 20260506061036 | 62 | 293 | 4.0 | 8.0 | 0.00 | 0.00 | 0.00 | 70 | 1007.7 |
| 20260506051016 | 60 | 270 | 6.0 | 12.0 | 0.00 | 0.00 | 0.00 | 73 | 1007.8 |
| 20260506045016 | 58 | 293 | 5.0 | 8.0 | 0.00 | 0.00 | 0.00 | 76 | 1007.6 |
| 20260506044016 | 58 | 293 | 5.0 | 8.0 | 0.00 | 0.00 | 0.00 | 76 | 1007.6 |
| 20260506042016 | 58 | 293 | 5.0 | 10.0 | 0.00 | 0.00 | 0.00 | 77 | 1007.4 |
| 20260506041016 | 57 | 293 | 5.0 | 9.0 | 0.00 | 0.00 | 0.00 | 78 | 1007.3 |
| 20260506040016 | 57 | 293 | 5.0 | 7.0 | 0.00 | 0.00 | 0.00 | 78 | 1007.1 |
| 20260506035036 | 57 | 293 | 5.0 | 7.0 | 0.00 | 0.00 | 0.00 | 79 | 1007.1 |
| 20260506034016 | 57 | 270 | 4.0 | 6.0 | 0.00 | 0.00 | 0.00 | 78 | 1007.1 |
| 20260506033016 | 58 | 270 | 4.0 | 6.0 | 0.00 | 0.00 | 0.00 | 78 | 1007.1 |
| 20260506032016 | 58 | 293 | 3.0 | 6.0 | 0.00 | 0.00 | 0.00 | 77 | 1007.0 |
| 20260506031016 | 58 | 270 | 3.0 | 7.0 | 0.00 | 0.00 | 0.00 | 77 | 1007.2 |
| 20260506030016 | 58 | 270 | 3.0 | 9.0 | 0.00 | 0.00 | 0.00 | 77 | 1007.1 |